Location: Newark
(52.3500°N, 175.9667°E)
Time: 22:59:38
(UTC+00:00)

Altair - Pass Details

Date: 29 April 2021
Orbit: 1501 x 1683 km, 47.2° (Epoch: 06 May)

Event Time Altitude Azimuth Distance (km) Brightness Sun altitude
Rises 17:04:34 0° 247° (WSW) 4,909 9.4 1.5°
Reaches altitude 10° 17:07:47 10° 244° (WSW) 3,906 9.0 1.9°
Maximum altitude 17:17:33 62° 168° (SSE) 1,790 8.0 3.3°
Drops below altitude 10° 17:26:58 10° 91° (E) 3,775 11.3 4.7°
Sets 17:30:02 0° 88° (E) 4,736 11.9 5.1°
